Wind_Speed
52 52 53 52 52 51 50 50 50 50 49 49 49 49 50 49 49 49 49 48 48 48 48 48 48 48 48 47 47 47 46 46 46 46 46 45 45 45
53 53 52 53 53 54 53 52 52 53 52 51 51 51 51 51 51 51 51 51 51 50 50 50 50 49 49 49 48 49 48 48 48 48 48 47 47 47
55 54 54 53 53 54 55 55 55 55 55 54 53 53 53 53 53 54 54 54 53 53 53 52 52 51 51 51 51 50 50 50 50 50 50 50 49 49
56 56 55 54 54 55 55 56 57 57 57 56 56 55 55 55 55 55 55 55 55 55 55 55 54 54 54 53 53 52 52 52 52 52 51 51 51 51
57 57 57 57 57 56 56 56 57 57 58 58 57 57 57 57 58 58 57 57 57 57 57 56 56 56 55 54 54 55 55 54 53 53 53 53 53 53
57 57 57 58 58 57 57 57 57 57 57 58 58 57 57 58 58 58 58 59 58 58 58 58 57 57 57 56 56 56 56 56 55 55 55 54 54 54
56 56 57 57 57 56 56 57 57 57 57 56 57 58 57 57 57 57 58 58 58 59 59 59 58 58 58 58 58 58 58 58 57 57 57 56 57 57
55 55 56 56 55 55 56 57 57 58 58 57 57 58 57 57 56 57 58 58 59 59 59 59 59 59 59 59 59 59 59 59 58 58 58 58 58 58
54 54 54 53 54 55 55 56 56 56 57 57 58 57 57 58 57 57 58 59 59 59 59 59 60 60 60 60 60 60 59 59 60 60 60 60 59 59
55 55 55 54 54 54 55 55 54 55 57 58 58 58 58 58 58 57 58 58 58 58 59 59 59 60 59 59 60 60 60 60 61 61 61 60 60 60
56 55 55 55 55 55 55 54 54 55 56 56 57 58 58 58 58 58 57 57 58 58 59 59 59 59 59 59 60 60 61 61 61 61 61 61 61 60
55 55 55 55 55 55 55 54 54 54 55 55 56 56 56 57 57 57 57 57 58 57 57 58 59 59 60 60 60 60 61 61 61 61 61 61 61 61
54 54 53 54 55 56 56 55 55 54 54 54 55 55 55 55 55 55 56 56 56 56 57 57 58 58 59 58 59 60 60 61 61 61 61 61 61 61
53 53 53 53 53 54 55 55 55 55 54 55 54 54 54 54 54 55 55 55 55 55 56 57 57 58 58 59 59 59 60 60 60 60 61 60 60 60
53 53 53 53 52 52 52 54 55 54 54 53 53 52 52 52 52 53 53 53 54 54 55 56 57 57 58 58 58 58 59 59 60 60 60 59 60 60
53 53 52 51 51 52 52 52 53 53 53 53 52 52 52 52 52 52 52 52 53 54 54 55 55 56 57 57 57 57 58 58 58 58 58 58 58 59
51 51 51 51 51 51 51 52 52 52 51 51 52 52 51 51 51 51 52 52 51 52 52 52 53 53 54 54 54 55 56 56 56 56 56 56 57 57
49 50 50 49 49 49 49 50 51 51 51 51 51 51 50 49 49 49 49 50 50 50 50 50 50 50 50 50 51 51 52 53 53 54 54 55 55 56
48 48 48 48 48 48 49 49 49 50 50 50 50 49 49 48 48 48 48 48 48 48 48 48 48 48 48 48 48 49 49 50 51 52 52 53 53 54
46 46 47 47 47 47 47 48 48 48 48 48 48 48 48 47 47 46 46 47 47 47 47 47 47 47 46 46 46 46 48 49 49 50 51 52 52 53
45 45 45 45 45 46 46 46 46 46 46 46 46 46 46 46 46 46 45 45 46 46 47 46 46 46 45 45 45 45 47 48 49 49 50 51 51 51
43 44 44 44 44 44 44 44 44 44 44 45 45 44 44 44 45 45 44 44 44 44 45 44 44 45 45 44 44 44 46 47 49 49 49 49 49 48
41 42 42 43 43 42 42 42 42 42 42 43 43 44 44 43 43 43 43 43 43 44 44 44 44 44 45 45 45 45 46 47 47 47 47 47 48 48
Wind_Direction
249 249 249 250 251 252 254 254 255 256 256 257 258 259 259 259 259 259 260 261 262 263 263 264 265 265 266 267 267 268 270 270 271 271 272 274 275 275
248 248 250 251 252 253 253 254 255 256 256 257 258 259 259 259 259 259 260 261 262 262 263 264 264 265 265 266 267 268 269 270 271 271 272 273 275 276
248 250 250 250 252 253 254 255 255 256 257 257 258 258 258 259 260 260 261 261 262 262 263 263 264 265 265 265 266 267 268 269 270 272 273 273 274 275
250 250 249 250 251 253 254 255 256 257 257 257 258 258 259 259 260 261 261 262 262 263 263 263 264 265 265 265 265 266 268 269 270 272 273 274 274 274
250 250 250 252 252 253 254 255 256 257 258 258 258 259 259 260 261 261 262 262 263 263 263 263 263 264 265 265 266 267 267 269 270 271 272 274 274 274
250 251 252 253 253 254 255 256 257 257 258 258 259 260 260 261 261 262 262 262 263 263 263 263 263 263 264 265 266 267 268 268 269 270 272 273 274 274
250 251 252 253 254 255 256 256 256 257 258 259 260 260 261 261 262 262 263 262 263 262 263 263 263 264 264 265 266 267 268 268 269 270 271 272 274 274
249 250 252 253 254 256 257 258 258 259 259 260 260 261 261 262 262 263 263 262 262 262 263 263 263 264 264 265 266 267 267 267 269 270 271 273 274 274
250 251 253 255 256 257 258 259 259 260 261 262 262 262 262 262 263 263 263 263 263 263 263 263 264 264 264 264 265 266 267 268 269 270 272 273 274 275
251 252 254 255 257 257 258 259 260 261 261 262 262 262 262 263 262 262 263 263 263 263 263 263 263 264 264 264 264 266 266 268 269 270 272 273 274 274
251 252 254 255 256 257 258 259 260 260 261 262 263 262 262 262 262 262 263 263 263 263 264 264 264 264 264 264 265 266 267 268 270 270 271 272 273 274
252 253 254 255 255 256 257 259 260 260 261 262 262 262 262 262 262 262 262 263 264 263 263 264 264 264 264 265 266 266 267 268 270 270 271 272 273 274
252 253 255 255 255 256 258 259 260 261 262 263 263 263 263 262 262 261 261 262 263 264 264 264 264 264 265 265 266 266 267 268 270 271 271 272 273 274
253 254 256 256 257 258 259 260 260 261 263 264 263 263 263 263 262 262 262 263 263 264 264 265 265 265 265 265 265 266 267 268 269 270 271 272 273 274
255 256 257 257 258 259 259 259 260 261 262 263 263 263 263 263 262 263 263 264 264 265 265 266 266 266 265 265 266 266 267 268 269 270 271 273 274 275
255 256 257 257 257 258 259 260 260 261 262 262 262 262 262 263 263 263 264 264 264 265 266 266 266 267 266 266 267 267 268 269 270 270 272 273 275 276
255 256 257 257 258 258 259 260 260 261 262 262 262 262 262 263 263 263 264 264 264 265 265 266 267 267 267 268 269 269 269 270 270 271 272 274 275 276
255 255 257 258 258 258 258 259 260 260 261 262 262 262 262 262 263 263 264 264 264 265 265 266 267 268 268 269 270 270 270 271 271 271 273 274 276 277
256 256 257 258 258 258 258 259 260 260 261 261 262 262 261 262 262 263 263 264 265 265 266 267 268 268 268 269 270 271 271 272 273 273 274 275 277 278
257 257 257 258 259 259 260 260 260 260 260 261 261 260 260 261 262 263 264 264 265 265 266 267 269 269 269 269 270 271 272 273 274 275 275 276 277 279
257 257 258 258 259 260 260 260 260 260 260 260 260 260 261 261 261 263 264 265 265 266 266 267 268 269 269 270 271 272 273 274 275 276 277 278 278 279
258 258 258 258 259 259 259 259 260 260 259 259 259 259 260 261 261 262 263 265 265 266 266 266 268 269 270 271 272 273 274 276 277 278 279 279 279 279
260 260 259 260 260 260 259 260 259 258 258 257 258 258 260 261 261 262 263 263 264 265 265 266 268 269 270 272 273 274 276 277 278 279 279 280 280 281
Height
5669 5673 5676 5680 5683 5686 5689 5692 5696 5698 5702 5704 5706 5708 5710 5712 5714 5716 5718 5719 5721 5723 5724 5725 5727 5728 5729 5730 5730 5731 5731 5732 5732 5732 5732 5732 5731 5731
5655 5659 5662 5666 5669 5672 5675 5678 5681 5685 5688 5691 5693 5695 5697 5699 5701 5703 5704 5706 5708 5709 5711 5712 5714 5715 5716 5717 5718 5719 5719 5720 5720 5720 5720 5719 5719 5719
5641 5645 5649 5652 5655 5658 5661 5664 5667 5670 5673 5677 5679 5680 5683 5685 5687 5689 5691 5692 5694 5695 5697 5698 5700 5701 5702 5703 5704 5705 5706 5706 5707 5707 5707 5707 5706 5706
5627 5631 5635 5638 5641 5644 5647 5650 5652 5655 5658 5661 5664 5666 5668 5669 5672 5674 5676 5677 5679 5681 5682 5684 5685 5687 5688 5689 5690 5691 5692 5693 5693 5693 5694 5694 5693 5692
5613 5617 5620 5623 5627 5630 5633 5635 5637 5640 5642 5645 5648 5650 5652 5654 5656 5658 5660 5662 5664 5665 5667 5668 5670 5671 5673 5674 5675 5677 5678 5679 5679 5679 5679 5679 5679 5678
5599 5602 5606 5609 5612 5615 5618 5620 5622 5624 5627 5629 5632 5634 5636 5638 5640 5642 5644 5646 5648 5649 5651 5653 5654 5656 5657 5659 5661 5662 5662 5663 5664 5664 5664 5664 5664 5663
5584 5587 5591 5594 5597 5600 5603 5605 5607 5609 5611 5613 5616 5618 5620 5622 5624 5626 5628 5630 5632 5633 5635 5637 5639 5641 5641 5643 5644 5645 5646 5647 5648 5648 5649 5649 5649 5648
5569 5573 5576 5579 5582 5584 5587 5590 5592 5594 5596 5598 5601 5603 5605 5606 5608 5610 5612 5614 5617 5619 5619 5621 5622 5624 5625 5627 5628 5629 5630 5631 5632 5632 5633 5633 5633 5632
5555 5558 5561 5564 5567 5570 5572 5574 5576 5578 5580 5583 5585 5587 5589 5591 5592 5594 5595 5597 5600 5602 5603 5605 5606 5608 5609 5611 5612 5613 5614 5614 5615 5616 5616 5616 5616 5616
5540 5543 5546 5549 5552 5555 5557 5559 5561 5563 5565 5567 5569 5571 5572 5573 5575 5577 5579 5581 5583 5584 5586 5588 5590 5592 5593 5594 5595 5596 5597 5598 5599 5599 5599 5599 5599 5599
5525 5528 5531 5535 5538 5540 5542 5545 5546 5548 5549 5550 5552 5554 5555 5556 5558 5560 5562 5564 5566 5568 5569 5571 5573 5575 5577 5578 5579 5579 5580 5581 5582 5582 5582 5582 5582 5582
5511 5514 5517 5520 5522 5524 5526 5529 5531 5533 5534 5535 5536 5537 5539 5540 5541 5543 5545 5547 5548 5551 5553 5554 5556 5557 5560 5562 5562 5563 5563 5564 5564 5565 5565 5565 5565 5564
5496 5499 5502 5504 5506 5508 5511 5513 5515 5517 5518 5520 5520 5521 5523 5524 5525 5527 5528 5530 5532 5534 5536 5537 5539 5540 5542 5545 5545 5546 5546 5547 5547 5548 5547 5547 5547 5547
5481 5484 5486 5488 5490 5493 5495 5497 5499 5501 5502 5504 5505 5506 5507 5509 5510 5511 5512 5514 5515 5517 5519 5520 5522 5523 5525 5526 5528 5529 5529 5530 5531 5531 5531 5530 5530 5529
5466 5469 5471 5473 5475 5477 5479 5481 5483 5485 5486 5488 5490 5491 5492 5494 5495 5496 5497 5498 5499 5500 5502 5503 5505 5506 5507 5509 5511 5512 5512 5513 5513 5514 5514 5513 5513 5512
5451 5453 5456 5458 5460 5462 5464 5466 5468 5470 5471 5473 5474 5476 5477 5478 5480 5480 5482 5483 5484 5485 5486 5487 5488 5489 5491 5492 5493 5494 5495 5496 5497 5497 5497 5497 5496 5495
5436 5439 5441 5444 5446 5447 5449 5451 5453 5454 5456 5458 5459 5461 5462 5464 5465 5466 5466 5467 5469 5470 5470 5471 5472 5473 5475 5476 5477 5478 5478 5479 5480 5480 5480 5480 5479 5478
5422 5425 5427 5429 5431 5433 5435 5436 5438 5439 5441 5442 5444 5446 5447 5449 5450 5451 5452 5453 5454 5455 5456 5457 5457 5459 5460 5461 5462 5462 5463 5463 5463 5464 5464 5464 5464 5462
5407 5410 5412 5414 5417 5418 5420 5422 5423 5425 5426 5428 5429 5431 5433 5434 5435 5436 5438 5439 5440 5441 5442 5443 5443 5444 5446 5447 5448 5447 5448 5448 5448 5448 5448 5448 5448 5447
5394 5396 5399 5400 5402 5404 5406 5407 5408 5410 5411 5413 5415 5416 5418 5420 5421 5423 5424 5425 5427 5428 5429 5429 5430 5431 5432 5433 5434 5434 5433 5433 5433 5433 5433 5432 5432 5431
5381 5383 5385 5387 5388 5390 5392 5393 5394 5396 5397 5399 5401 5402 5404 5406 5408 5409 5410 5412 5413 5415 5416 5416 5416 5417 5418 5419 5421 5421 5420 5418 5418 5418 5418 5418 5417 5416
5367 5369 5371 5373 5374 5376 5378 5379 5381 5382 5384 5386 5387 5389 5391 5393 5394 5396 5397 5399 5400 5401 5402 5403 5403 5404 5405 5406 5407 5407 5407 5405 5404 5403 5403 5402 5401 5401
5354 5356 5357 5359 5361 5363 5364 5366 5367 5369 5371 5372 5374 5376 5378 5380 5381 5383 5384 5386 5387 5388 5389 5390 5390 5391 5391 5392 5393 5393 5393 5392 5391 5390 5389 5387 5386 5385